SCP
0 -0 -0 -0 0 -0 -0 -0 -0 0 0 0 0 0 0 0 0 -0 -0 -0 -0 -0 -0 -0 -0 -0 -0 -0 -0 -0 -0 -0
-0 0 -0 0 -0 -0 0 0 0 0 0 0 0 0 0 0 0 0 -0 -0 -0 -0 -0 -0 -0 -0 -0 -0 -0 -0 -0 -0
0 0 0 0 -0 -0 0 0 0 0 0 0 0 0 0 0 0 0 0 -0 -0 -0 -0 -0 -0 -0 -0 -0 -0 -0 0 -0
0 0 0 0 -0 0 0 -0 0 0 0 0 0 0 0 0 0 0 0 0 -0 -0 -0 -0 -0 -0 -0 -0 -0 -0 0 0
0 0 0 0 0 0 -0 0 0 0 0 0 0 0 0 0 0 0 0 0 -0 -0 -0 -0 -0 -0 -0 -0 -0 -0 -0 0
-0 0 0 0 -0 0 -0 0 0 0 0 0 0 0 0 0 0 0 0 0 0 -0 -0 -0 -0 -0 -0 -0 0 -0 -0 0
-0 0 0 0 0 0 0 -0 0 0 0 0 0 -0 0 0 0 -0 0 -0 -0 -0 -0 -0 -0 -0 -0 0 -0 0 0 0
0 -0 0 0 0 0 0 0 0 0 0 0 0 0 0 0 0 0 -0 0 -0 -0 -0 -0 -0 -0 -0 0 0 0 0 0
0 0 0 0 0 0 0 0 0 0 0 0 0 0 0 0 0 0 0 0 0 0 -0 0 -0 -0 -0 -0 0 0 0 0
0 0 0 0 0 0 0 0 0 0 0 0 0 0 0 0 0 0 0 0 0 0 0 0 0 0 0 -0 -0 -0 0 0
0 0 0 0 0 0 0 0 0 0 0 0 0 0 0 0 0 0 0 0 1 1 1 1 0 1 0 0 0 0 0 0
0 0 0 0 0 0 0 0 1 1 0 1 0 0 1 2 1 0 0 0 1 1 1 1 1 1 1 0 0 0 0 0
0 0 0 0 0 0 0 1 1 1 1 1 3 1 1 1 1 1 0 1 1 1 1 1 1 1 1 0 0 0 0 0
0 0 0 0 0 1 1 1 1 1 1 1 1 1 1 0 1 1 0 1 1 1 1 0 1 1 1 1 1 1 1 1
0 0 0 -0 0 0 0 1 0 1 1 0 0 1 1 2 1 1 1 0 1 1 1 1 1 1 1 2 1 1 1 1
0 0 0 0 0 0 0 1 0 0 0 0 0 0 1 1 2 3 2 1 0 1 1 2 2 2 2 1 1 1 1 0
0 0 0 0 0 0 0 0 0 0 0 0 0 1 1 1 2 3 3 2 1 2 4 3 2 3 2 1 1 1 0 0
0 0 0 0 0 0 0 0 0 0 0 0 0 0 0 1 2 2 3 2 2 1 8 6 5 3 2 1 1 0 0 0
0 0 0 -0 0 0 0 0 0 0 0 0 0 0 0 1 0 2 2 2 2 4 6 7 5 3 2 2 1 0 0 0
Wind_Speed_500mb
18 39 37 34 33 25 30 34 26 15 8 11 14 14 14 13 14 26 46 57 56 54 58 54 53 54 55 54 50 48 48 45
25 16 26 32 34 21 22 25 25 12 18 12 20 18 13 9 15 13 26 44 52 55 56 54 53 53 52 52 51 49 50 47
17 22 28 17 26 27 29 24 24 19 8 15 4 3 14 14 8 16 20 34 49 53 51 53 52 51 51 52 51 48 50 49
34 33 31 27 31 29 24 35 22 25 23 20 14 4 6 23 13 18 20 27 38 48 50 49 52 50 50 51 50 48 50 53
36 31 37 24 28 28 36 31 31 27 23 30 2 12 8 12 26 24 25 31 37 42 45 49 50 49 46 51 50 48 48 49
34 38 9 17 40 31 35 31 33 34 36 23 18 13 20 18 33 34 33 36 40 42 44 46 48 50 51 49 50 48 47 45
45 50 49 42 40 38 35 39 33 39 40 11 30 45 26 28 30 41 42 42 42 43 43 44 45 45 47 48 47 48 46 43
44 51 47 47 47 46 48 47 44 43 43 38 15 32 38 22 33 40 47 48 46 44 43 43 42 42 41 41 42 43 46 41
43 42 45 48 44 51 52 50 44 42 42 37 37 9 34 29 33 38 45 48 49 48 45 41 40 39 40 41 39 39 39 36
34 39 50 42 42 45 41 39 31 32 37 36 39 16 16 50 29 37 37 44 48 46 42 39 37 36 35 37 38 37 36 35
32 36 49 48 37 28 24 27 19 25 33 41 54 22 44 29 19 17 31 42 47 47 46 44 43 42 40 37 34 32 32 31
32 42 45 33 13 26 15 24 25 26 22 32 54 25 15 28 15 10 28 39 45 45 44 45 46 45 42 38 33 30 27 25
28 37 39 32 25 18 21 6 19 32 26 30 24 15 37 17 16 1 20 34 43 46 46 46 48 46 44 39 35 30 29 25
23 21 29 40 22 12 22 21 20 17 28 27 30 21 7 28 11 6 10 33 42 46 47 48 47 44 42 41 37 33 27 31
13 8 33 6 34 30 19 27 20 22 27 31 31 31 24 15 14 7 8 23 40 47 48 48 50 48 46 44 43 40 32 31
27 29 38 40 39 33 22 22 29 33 31 22 24 32 28 22 18 17 13 17 40 49 52 49 52 50 47 46 40 35 32 29
33 31 34 40 55 37 32 33 39 36 33 31 29 26 23 20 21 19 16 21 32 50 59 53 48 47 46 41 37 33 29 27
23 38 39 39 46 46 36 35 37 45 43 37 32 27 25 20 21 24 18 20 26 39 61 61 52 47 45 41 36 34 28 21
36 50 56 59 59 45 51 32 40 41 42 40 36 30 27 26 19 26 21 19 22 37 54 61 58 49 43 41 34 28 23 21
Wind_Direction_500mb
219 216 229 243 257 283 289 286 263 263 148 219 104 105 146 182 167 193 193 199 209 193 196 196 197 197 198 200 201 203 208 209
200 201 242 261 268 248 223 258 267 287 313 245 163 110 136 165 171 197 200 197 201 193 198 197 201 199 200 202 204 202 207 209
219 211 256 184 234 251 274 293 310 290 42 5 294 189 173 175 175 165 191 198 196 195 194 198 201 200 203 204 206 205 209 209
251 244 229 250 265 221 228 235 247 294 291 180 145 148 244 156 158 151 172 183 191 196 195 197 200 202 199 204 205 209 211 209
256 255 238 235 239 252 263 277 271 266 277 85 170 174 223 230 157 163 169 171 181 189 194 195 198 201 203 203 207 209 210 209
281 290 360 261 282 255 270 254 260 250 264 167 187 250 184 203 168 177 180 176 180 185 191 195 197 200 202 204 204 205 209 208
273 279 282 285 269 263 250 264 274 279 284 272 340 311 192 176 192 183 186 184 185 184 188 192 196 199 200 200 203 201 208 206
270 278 280 277 279 280 276 274 271 267 272 282 214 231 311 181 184 194 190 194 192 192 192 196 198 198 200 199 201 199 201 205
272 273 271 261 256 258 260 259 262 264 266 266 276 266 209 253 181 203 201 199 194 193 193 193 194 193 195 193 193 194 198 204
271 276 263 270 283 288 299 279 289 289 292 292 264 274 226 268 200 190 205 197 193 190 187 187 186 184 183 184 188 189 195 201
260 257 269 270 272 289 311 297 303 350 326 305 290 240 248 207 204 216 189 195 193 190 183 178 177 175 174 176 184 189 197 202
249 257 261 272 29 358 303 275 12 354 336 339 303 191 30 40 100 213 179 183 185 182 180 175 174 173 173 176 182 187 192 194
254 247 257 280 1 266 262 316 12 337 344 344 357 24 324 38 73 180 189 178 179 178 179 178 175 173 170 174 178 180 181 181
272 320 263 349 312 321 1 328 335 329 337 342 342 347 358 328 18 44 197 174 183 182 181 179 174 175 173 172 172 172 172 177
294 250 209 263 292 330 300 304 316 314 320 336 331 335 336 325 326 322 251 209 195 193 186 182 180 177 175 174 172 174 178 176
292 290 306 308 305 306 314 316 317 316 314 314 310 303 319 329 327 304 259 220 209 199 191 187 184 180 176 175 174 169 170 171
307 270 338 321 333 335 320 304 301 304 296 295 296 290 293 312 318 306 272 244 220 205 191 189 186 180 175 170 169 168 172 176
289 302 303 287 285 296 283 290 290 297 292 282 280 292 289 296 307 297 282 256 228 211 185 181 180 177 167 162 164 164 164 174
316 317 310 301 288 270 265 278 288 290 286 273 266 276 285 279 291 281 270 247 222 209 196 177 169 167 161 152 155 160 160 168
Wind_Speed_850mb
18 39 37 34 33 25 30 34 26 15 8 11 14 14 14 13 14 26 46 57 56 54 58 54 53 54 55 54 50 48 48 45
25 16 26 32 34 21 22 25 25 12 18 12 20 18 13 9 15 13 26 44 52 55 56 54 53 53 52 52 51 49 50 47
17 22 28 17 26 27 29 24 24 19 8 15 4 3 14 14 8 16 20 34 49 53 51 53 52 51 51 52 51 48 50 49
34 33 31 27 31 29 24 35 22 25 23 20 14 4 6 23 13 18 20 27 38 48 50 49 52 50 50 51 50 48 50 53
36 31 37 24 28 28 36 31 31 27 23 30 2 12 8 12 26 24 25 31 37 42 45 49 50 49 46 51 50 48 48 49
34 38 9 17 40 31 35 31 33 34 36 23 18 13 20 18 33 34 33 36 40 42 44 46 48 50 51 49 50 48 47 45
45 50 49 42 40 38 35 39 33 39 40 11 30 45 26 28 30 41 42 42 42 43 43 44 45 45 47 48 47 48 46 43
44 51 47 47 47 46 48 47 44 43 43 38 15 32 38 22 33 40 47 48 46 44 43 43 42 42 41 41 42 43 46 41
43 42 45 48 44 51 52 50 44 42 42 37 37 9 34 29 33 38 45 48 49 48 45 41 40 39 40 41 39 39 39 36
34 39 50 42 42 45 41 39 31 32 37 36 39 16 16 50 29 37 37 44 48 46 42 39 37 36 35 37 38 37 36 35
32 36 49 48 37 28 24 27 19 25 33 41 54 22 44 29 19 17 31 42 47 47 46 44 43 42 40 37 34 32 32 31
32 42 45 33 13 26 15 24 25 26 22 32 54 25 15 28 15 10 28 39 45 45 44 45 46 45 42 38 33 30 27 25
28 37 39 32 25 18 21 6 19 32 26 30 24 15 37 17 16 1 20 34 43 46 46 46 48 46 44 39 35 30 29 25
23 21 29 40 22 12 22 21 20 17 28 27 30 21 7 28 11 6 10 33 42 46 47 48 47 44 42 41 37 33 27 31
13 8 33 6 34 30 19 27 20 22 27 31 31 31 24 15 14 7 8 23 40 47 48 48 50 48 46 44 43 40 32 31
27 29 38 40 39 33 22 22 29 33 31 22 24 32 28 22 18 17 13 17 40 49 52 49 52 50 47 46 40 35 32 29
33 31 34 40 55 37 32 33 39 36 33 31 29 26 23 20 21 19 16 21 32 50 59 53 48 47 46 41 37 33 29 27
23 38 39 39 46 46 36 35 37 45 43 37 32 27 25 20 21 24 18 20 26 39 61 61 52 47 45 41 36 34 28 21
36 50 56 59 59 45 51 32 40 41 42 40 36 30 27 26 19 26 21 19 22 37 54 61 58 49 43 41 34 28 23 21
Wind_Direction_850mb
219 216 229 243 257 283 289 286 263 263 148 219 104 105 146 182 167 193 193 199 209 193 196 196 197 197 198 200 201 203 208 209
200 201 242 261 268 248 223 258 267 287 313 245 163 110 136 165 171 197 200 197 201 193 198 197 201 199 200 202 204 202 207 209
219 211 256 184 234 251 274 293 310 290 42 5 294 189 173 175 175 165 191 198 196 195 194 198 201 200 203 204 206 205 209 209
251 244 229 250 265 221 228 235 247 294 291 180 145 148 244 156 158 151 172 183 191 196 195 197 200 202 199 204 205 209 211 209
256 255 238 235 239 252 263 277 271 266 277 85 170 174 223 230 157 163 169 171 181 189 194 195 198 201 203 203 207 209 210 209
281 290 360 261 282 255 270 254 260 250 264 167 187 250 184 203 168 177 180 176 180 185 191 195 197 200 202 204 204 205 209 208
273 279 282 285 269 263 250 264 274 279 284 272 340 311 192 176 192 183 186 184 185 184 188 192 196 199 200 200 203 201 208 206
270 278 280 277 279 280 276 274 271 267 272 282 214 231 311 181 184 194 190 194 192 192 192 196 198 198 200 199 201 199 201 205
272 273 271 261 256 258 260 259 262 264 266 266 276 266 209 253 181 203 201 199 194 193 193 193 194 193 195 193 193 194 198 204
271 276 263 270 283 288 299 279 289 289 292 292 264 274 226 268 200 190 205 197 193 190 187 187 186 184 183 184 188 189 195 201
260 257 269 270 272 289 311 297 303 350 326 305 290 240 248 207 204 216 189 195 193 190 183 178 177 175 174 176 184 189 197 202
249 257 261 272 29 358 303 275 12 354 336 339 303 191 30 40 100 213 179 183 185 182 180 175 174 173 173 176 182 187 192 194
254 247 257 280 1 266 262 316 12 337 344 344 357 24 324 38 73 180 189 178 179 178 179 178 175 173 170 174 178 180 181 181
272 320 263 349 312 321 1 328 335 329 337 342 342 347 358 328 18 44 197 174 183 182 181 179 174 175 173 172 172 172 172 177
294 250 209 263 292 330 300 304 316 314 320 336 331 335 336 325 326 322 251 209 195 193 186 182 180 177 175 174 172 174 178 176
292 290 306 308 305 306 314 316 317 316 314 314 310 303 319 329 327 304 259 220 209 199 191 187 184 180 176 175 174 169 170 171
307 270 338 321 333 335 320 304 301 304 296 295 296 290 293 312 318 306 272 244 220 205 191 189 186 180 175 170 169 168 172 176
289 302 303 287 285 296 283 290 290 297 292 282 280 292 289 296 307 297 282 256 228 211 185 181 180 177 167 162 164 164 164 174
316 317 310 301 288 270 265 278 288 290 286 273 266 276 285 279 291 281 270 247 222 209 196 177 169 167 161 152 155 160 160 168